[[{"header":{"parameterUnit":"m.s-1","parameterCategory":1,"la1":30.2991,"la2":30.254,"lo1":-89.0895,"lo2":-89.0444,"dy":0.0017,"dx":0.0017,"nx":28,"ny":28,"refTime":"2024-10-03T09:00:00:Z","depth":0,"parameterNumber":2,"parameterNumberName":"U-component_of_WINDS"},"data":[0,0,0,0,0,0,0,0,0,0,0,0,0,0,0,0,0,0,0,0,0,0,0,0,0,0,0,0,0,0,0,0,0,0,0,0,0,0,0,0,0,0,0,0,0,0,0,0,0,0,0,0,0,0,0,0,0,0,-3.0228,-3.0228,0,-3.0221,-3.0221,-3.0221,-3.0098,-3.0095,-3.0092,-3.0089,-3.0085,-3.0088,-3.0091,0,0,0,0,0,0,0,0,0,0,0,0,0,-3.0139,-3.0141,-3.0228,-3.0228,-3.0228,-3.0221,-3.0221,-3.0221,-3.0099,-3.0095,-3.0091,-3.0088,-3.0084,-3.0088,-3.0091,0,0,0,0,0,0,0,0,0,0,0,0,0,-3.016,-3.0142,-3.0228,-3.0166,-3.0161,-3.0221,-3.0221,-3.0221,-3.01,-3.0095,-3.009,-3.0086,-3.0083,-3.0087,-3.0092,-3.0212,0,0,-3.0104,-3.0106,0,0,0,0,0,0,0,0,-3.0159,-3.0163,-3.0175,-3.0171,-3.0164,-3.0156,-3.0188,-3.0218,-3.0101,-3.0123,-3.0089,-3.0084,-3.0113,-3.0114,-3.0123,-3.0212,-3.0211,-3.0105,-3.0107,-3.0109,-3.011,0,0,0,0,0,0,0,-3.0157,-3.0163,-3.0225,-3.0176,-3.0169,-3.014,-3.0137,-3.0193,-3.0144,-3.0121,-3.0112,-3.0112,-3.0109,-3.012,-3.0122,-3.0211,-3.0105,-3.0108,-3.0111,-3.0113,-3.0398,-3.0403,0,0,0,0,0,0,-3.0164,-3.0162,-3.0225,-3.0225,-3.015,-3.0145,-3.0142,-3.0163,-3.0143,-3.0136,-3.0116,-3.0107,-3.0115,-3.0118,-3.0122,-3.0262,-3.0109,-3.0113,-3.0116,-3.0394,-3.04,-3.0405,0,0,0,0,0,0,-3.0163,-3.0171,-3.0226,-3.0191,-3.0196,-3.0152,-3.0176,-3.0166,-3.0176,-3.014,-3.0131,-3.0136,-3.0111,-3.0116,-3.019,-3.026,-3.0115,-3.0119,-3.0388,-3.0395,-3.0402,-3.0543,0,0,0,0,0,0,-3.0161,-3.0171,-3.0216,-3.0193,-3.0198,-3.0294,-3.018,-3.0169,-3.0183,-3.0171,-3.0156,-3.0149,-3.0108,-3.0185,-3.0194,-3.0263,-3.0122,-3.0381,-3.0391,-3.04,-3.0532,-3.0555,-3.0574,0,0,0,0,0,-3.0158,-3.0256,-3.0219,-3.0227,-3.0253,-3.0298,-3.0301,-3.025,-3.0189,-3.0235,-3.0211,-3.015,-3.025,-3.0193,-3.0203,-3.0275,-3.0377,-3.0388,-3.0399,-3.0523,-3.0551,-3.0574,0,0,0,0,0,0,-3.029,-3.0252,-3.021,-3.0304,-3.0305,-3.0278,-3.0333,-3.0281,-3.03,-3.0288,-3.0224,-3.0222,-3.0307,-3.0298,-3.0235,-3.039,-3.0303,-3.0317,-3.0393,-3.0419,-3.044,-3.0441,-3.0126,0,0,0,0,0,-3.0329,-3.0368,-3.0334,-3.042,-3.0423,-3.0378,-3.0396,-3.0356,-3.0355,-3.0356,-3.0338,-3.034,-3.0372,-3.0395,-3.0422,-3.053,-3.0526,-3.0584,-3.0605,-3.0622,-3.0635,-3.0693,-3.0718,-3.0442,-3.0442,-3.0442,0,0,-3.0413,-3.0397,-3.0426,-3.0446,-3.0442,-3.0485,-3.0379,-3.0429,-3.0461,-3.0363,-3.0433,-3.042,-3.0418,-3.051,-3.055,-3.0505,-3.071,-3.0636,-3.065,-3.0655,-3.0707,-3.0733,-3.0757,-3.045,-3.0449,-3.0448,0,0,-3.0586,-3.0578,-3.0649,-3.0647,-3.0642,-3.0612,-3.0629,-3.0609,-3.0597,-3.0664,-3.0593,-3.0629,-3.0686,-3.0688,-3.0696,-3.087,-3.0815,-3.0881,-3.0991,-3.1048,-3.1069,-3.1088,-3.1152,-3.1175,-3.0894,-3.0894,-3.0895,0,-3.0691,-3.0751,-3.0692,-3.0747,-3.0759,-3.0671,-3.0744,-3.0745,-3.075,-3.0761,-3.071,-3.0779,-3.0772,-3.0863,-3.0906,-3.0915,-3.0934,-3.0883,-3.1071,-3.1089,-3.1106,-3.1166,-3.119,-3.0903,-3.0902,-3.0901,-3.09,0,-3.0881,-3.0924,-3.0982,-3.0988,-3.1006,-3.107,-3.1021,-3.1047,-3.1005,-3.0981,-3.1052,-3.1039,-3.1063,-3.1082,-3.1042,-3.1168,-3.1141,-3.1082,-3.0993,-3.1142,-3.1197,-3.1219,-3.0914,-3.0911,-3.0909,-3.0907,0,0,-3.1139,-3.1111,-3.1133,-3.1135,-3.1123,-3.1156,-3.1216,-3.1238,-3.1261,-3.1267,-3.1317,-3.1366,-3.1311,-3.1321,-3.1281,-3.133,-3.147,-3.1264,-3.1263,-3.1305,-3.161,-3.1656,-3.1684,-3.1433,-3.1437,-3.144,-3.1611,0,-3.1308,-3.1407,-3.1356,-3.1463,-3.1503,-3.1419,-3.1471,-3.147,-3.1449,-3.148,-3.1456,-3.1492,-3.1416,-3.1422,-3.1466,-3.1444,-3.1531,-3.143,-3.148,-3.1482,-3.1485,-3.1712,-3.1761,-3.1923,-3.1632,-3.1635,-3.1638,0,-3.1519,-3.1533,-3.1644,-3.1624,-3.1639,-3.1687,-3.1703,-3.1733,-3.1731,-3.1711,-3.1722,-3.167,-3.1728,-3.1638,-3.1718,-3.1651,-3.1668,-3.166,-3.1665,-3.1669,-3.1571,-3.1725,-3.1973,-3.1999,-3.1671,-3.1668,-3.1666,0,-3.1698,-3.1745,-3.1817,-3.1821,-3.18,-3.1836,-3.1829,-3.1821,-3.1837,-3.1852,-3.1862,-3.1884,-3.1896,-3.1914,-3.187,-3.1808,-3.1956,-3.1863,-3.1943,-3.1945,-3.198,-3.1979,-3.2237,-3.1988,-3.1988,-3.1987,-3.1987,0,-3.1894,-3.1965,-3.1898,-3.1943,-3.202,-3.196,-3.2039,-3.2023,-3.2017,-3.2058,-3.1987,-3.2027,-3.1965,-3.1999,-3.1965,-3.2037,-3.2043,-3.203,-3.202,-3.2037,-3.204,-3.2049,-3.2038,-3.1994,-3.1992,-3.1991,-3.199,0,-3.2109,-3.2066,-3.214,-3.2113,-3.2108,-3.2167,-3.2144,-3.2185,-3.2157,-3.2211,-3.2219,-3.2177,-3.2214,-3.217,-3.2204,-3.218,-3.2279,-3.2252,-3.228,-3.2273,-3.2357,-3.2351,-3.2632,-3.2667,-3.2394,-3.2397,-3.2399,0,-3.2237,-3.229,-3.2269,-3.2291,-3.2288,-3.2324,-3.234,-3.2283,-3.2303,-3.2303,-3.2345,-3.2375,-3.2397,-3.2459,-3.2432,-3.2457,-3.2431,-3.2528,-3.2435,-3.2451,-3.2435,-3.2434,-3.2439,-3.2548,-3.2552,-3.2554,-3.2556,0,-3.2471,-3.2447,-3.2472,-3.2491,-3.2513,-3.2525,-3.2532,-3.2554,-3.2494,-3.2521,-3.2557,-3.2574,-3.2607,-3.2639,-3.2656,-3.2649,-3.2595,-3.2585,-3.2606,-3.2625,-3.264,-3.2635,-3.2334,-3.258,-3.2578,-3.2576,-3.2575,-3.2574,-3.2647,-3.2691,-3.2683,-3.2714,-3.2713,-3.2721,-3.2758,-3.2735,-3.2764,-3.2786,-3.275,-3.2796,-3.2792,-3.2809,-3.2809,-3.2845,-3.2803,-3.2832,-3.284,-3.2849,-3.2862,-3.2633,-3.2847,-3.2847,-3.2846,-3.2845,-3.2845,0,-3.2879,-3.2869,-3.2898,-3.291,-3.2935,-3.2878,-3.2883,-3.2908,-3.2949,-3.2949,-3.2971,-3.3013,-3.3043,-3.3018,-3.3043,-3.3076,-3.3052,-3.3085,-3.3083,-3.3083,-3.2897,-3.2878,-3.3105,-3.3105,-3.3105,-3.3105,-3.3105,-3.3105,-3.3002,-3.3073,-3.3048,-3.3118,-3.3107,-3.3151,-3.3159,-3.3167,-3.3166,-3.3216,-3.324,-3.3223,-3.3213,-3.3237,-3.3263,-3.3254,-3.3268,-3.3311,-3.3294,-3.3121,-3.3096,-3.3072,-3.3053,-3.3314,-3.3314,-3.3477,-3.3479,-3.348]},{"header":{"parameterUnit":"m.s-1","parameterCategory":1,"la1":30.2991,"la2":30.254,"lo1":-89.0895,"lo2":-89.0444,"dy":0.0017,"dx":0.0017,"nx":28,"ny":28,"refTime":"2024-10-03T09:00:00:Z","depth":0,"parameterNumber":3,"parameterNumberName":"V-component_of_WINDS"},"data":[0,0,0,0,0,0,0,0,0,0,0,0,0,0,0,0,0,0,0,0,0,0,0,0,0,0,0,0,0,0,0,0,0,0,0,0,0,0,0,0,0,0,0,0,0,0,0,0,0,0,0,0,0,0,0,0,0,0,-3.3535,-3.3535,0,-3.3533,-3.3533,-3.3533,-3.3478,-3.3477,-3.3475,-3.3474,-3.3472,-3.3473,-3.3475,0,0,0,0,0,0,0,0,0,0,0,0,0,-3.3491,-3.3492,-3.3535,-3.3535,-3.3535,-3.3533,-3.3533,-3.3533,-3.3478,-3.3477,-3.3475,-3.3473,-3.3472,-3.3473,-3.3475,0,0,0,0,0,0,0,0,0,0,0,0,0,-3.3502,-3.3493,-3.3535,-3.3508,-3.3505,-3.3533,-3.3533,-3.3533,-3.3479,-3.3477,-3.3475,-3.3473,-3.3471,-3.3473,-3.3475,-3.3529,0,0,-3.3481,-3.3482,0,0,0,0,0,0,0,0,-3.3502,-3.3504,-3.3512,-3.351,-3.3507,-3.3504,-3.3517,-3.3532,-3.3479,-3.3489,-3.3474,-3.3472,-3.3484,-3.3485,-3.3489,-3.3529,-3.3529,-3.3481,-3.3482,-3.3483,-3.3483,0,0,0,0,0,0,0,-3.3501,-3.3504,-3.3535,-3.3512,-3.3509,-3.3495,-3.3494,-3.352,-3.3499,-3.3488,-3.3484,-3.3484,-3.3483,-3.3488,-3.3489,-3.3529,-3.3481,-3.3483,-3.3484,-3.3484,-3.3612,-3.3614,0,0,0,0,0,0,-3.3504,-3.3503,-3.3535,-3.3535,-3.3499,-3.3498,-3.3497,-3.3507,-3.3498,-3.3495,-3.3486,-3.3482,-3.3485,-3.3487,-3.3489,-3.355,-3.3483,-3.3485,-3.3486,-3.361,-3.3612,-3.3615,0,0,0,0,0,0,-3.3503,-3.3507,-3.3535,-3.3518,-3.352,-3.3501,-3.3513,-3.3508,-3.3513,-3.3497,-3.3493,-3.3495,-3.3484,-3.3486,-3.3519,-3.355,-3.3485,-3.3487,-3.3607,-3.361,-3.3614,-3.3675,0,0,0,0,0,0,-3.3502,-3.3507,-3.3528,-3.3519,-3.3521,-3.3566,-3.3515,-3.351,-3.3516,-3.3511,-3.3504,-3.3501,-3.3482,-3.3517,-3.3521,-3.3551,-3.3489,-3.3604,-3.3609,-3.3612,-3.367,-3.368,-3.3689,0,0,0,0,0,-3.3501,-3.3546,-3.3529,-3.3534,-3.3547,-3.3568,-3.3569,-3.3546,-3.3519,-3.3539,-3.3529,-3.3501,-3.3546,-3.3521,-3.3525,-3.3556,-3.3602,-3.3607,-3.3612,-3.3666,-3.3678,-3.3689,0,0,0,0,0,0,-3.356,-3.3544,-3.3526,-3.3569,-3.357,-3.3558,-3.3583,-3.356,-3.3569,-3.3563,-3.3535,-3.3534,-3.3571,-3.3567,-3.3539,-3.3608,-3.3569,-3.3575,-3.3609,-3.362,-3.3629,-3.3629,-3.349,0,0,0,0,0,-3.3578,-3.3596,-3.3582,-3.3621,-3.3623,-3.3603,-3.3611,-3.3594,-3.3593,-3.3594,-3.3586,-3.3586,-3.36,-3.361,-3.3622,-3.367,-3.3667,-3.3693,-3.3703,-3.371,-3.3716,-3.3739,-3.375,-3.3631,-3.3631,-3.3631,0,0,-3.3615,-3.3609,-3.3622,-3.3633,-3.3631,-3.365,-3.3604,-3.3626,-3.364,-3.3597,-3.3627,-3.3622,-3.3621,-3.3661,-3.3679,-3.3659,-3.3748,-3.3717,-3.3723,-3.3724,-3.3746,-3.3757,-3.3767,-3.3635,-3.3634,-3.3634,0,0,-3.3693,-3.3691,-3.3723,-3.3722,-3.372,-3.3707,-3.3715,-3.3706,-3.37,-3.3731,-3.3698,-3.3714,-3.374,-3.374,-3.3743,-3.382,-3.3795,-3.3825,-3.3873,-3.3896,-3.3905,-3.3913,-3.394,-3.3949,-3.3831,-3.3831,-3.3831,0,-3.374,-3.3767,-3.3742,-3.3766,-3.3771,-3.3733,-3.3765,-3.3766,-3.3768,-3.3772,-3.3751,-3.378,-3.3777,-3.3816,-3.3835,-3.384,-3.3847,-3.3825,-3.3906,-3.3914,-3.3921,-3.3946,-3.3956,-3.3834,-3.3834,-3.3834,-3.3833,0,-3.3824,-3.3843,-3.3869,-3.3872,-3.388,-3.3908,-3.3887,-3.3898,-3.388,-3.3869,-3.39,-3.3894,-3.3904,-3.3912,-3.3895,-3.3949,-3.3937,-3.3911,-3.3871,-3.3936,-3.3959,-3.3968,-3.3839,-3.3838,-3.3837,-3.3836,0,0,-3.3938,-3.3926,-3.3936,-3.3936,-3.3931,-3.3946,-3.3972,-3.3981,-3.399,-3.3994,-3.4014,-3.4036,-3.4012,-3.4016,-3.3998,-3.4019,-3.4078,-3.399,-3.3989,-3.4005,-3.4136,-3.4154,-3.4166,-3.4062,-3.4063,-3.4065,-3.4135,0,-3.4012,-3.4055,-3.4033,-3.4079,-3.4096,-3.406,-3.4082,-3.4082,-3.4072,-3.4085,-3.4074,-3.4089,-3.4057,-3.4059,-3.4078,-3.4067,-3.4104,-3.4062,-3.408,-3.4081,-3.408,-3.4178,-3.4197,-3.4264,-3.4144,-3.4146,-3.4147,0,-3.4104,-3.411,-3.4158,-3.4148,-3.4154,-3.4175,-3.4181,-3.4194,-3.4192,-3.4183,-3.4188,-3.4165,-3.4189,-3.4151,-3.4184,-3.4156,-3.4162,-3.4158,-3.416,-3.4159,-3.4117,-3.4179,-3.4285,-3.4295,-3.4161,-3.416,-3.4159,0,-3.4181,-3.4201,-3.4232,-3.4233,-3.4223,-3.4238,-3.4235,-3.4231,-3.4238,-3.4243,-3.4247,-3.4255,-3.426,-3.4267,-3.4247,-3.4221,-3.4282,-3.4242,-3.4275,-3.4275,-3.4288,-3.4287,-3.4396,-3.4295,-3.4295,-3.4294,-3.4294,0,-3.4265,-3.4295,-3.4266,-3.4285,-3.4317,-3.4291,-3.4324,-3.4317,-3.4313,-3.433,-3.43,-3.4316,-3.4289,-3.4302,-3.4287,-3.4315,-3.4318,-3.4311,-3.4307,-3.4313,-3.4314,-3.4316,-3.431,-3.4297,-3.4296,-3.4296,-3.4295,0,-3.4356,-3.4338,-3.4368,-3.4356,-3.4354,-3.4378,-3.4368,-3.4384,-3.4372,-3.4393,-3.4397,-3.4378,-3.4392,-3.4373,-3.4386,-3.4375,-3.4414,-3.4403,-3.4414,-3.4411,-3.4444,-3.444,-3.4556,-3.4569,-3.4461,-3.4462,-3.4463,0,-3.441,-3.4432,-3.4422,-3.4431,-3.4429,-3.4443,-3.4449,-3.4425,-3.4433,-3.4432,-3.4448,-3.446,-3.4467,-3.4492,-3.4479,-3.4488,-3.4476,-3.4516,-3.4477,-3.4483,-3.4475,-3.4474,-3.4475,-3.4524,-3.4525,-3.4526,-3.4527,0,-3.4508,-3.4497,-3.4507,-3.4514,-3.4522,-3.4526,-3.4528,-3.4537,-3.4511,-3.4521,-3.4535,-3.4541,-3.4553,-3.4564,-3.457,-3.4566,-3.4542,-3.454,-3.4547,-3.4553,-3.4559,-3.4555,-3.4435,-3.4537,-3.4536,-3.4535,-3.4534,-3.4534,-3.4581,-3.4598,-3.4593,-3.4605,-3.4604,-3.4606,-3.4621,-3.461,-3.4621,-3.4628,-3.4614,-3.4631,-3.4628,-3.4633,-3.4632,-3.4645,-3.4627,-3.4639,-3.4641,-3.4644,-3.4649,-3.4558,-3.4646,-3.4646,-3.4645,-3.4645,-3.4645,0,-3.4675,-3.467,-3.4681,-3.4684,-3.4694,-3.467,-3.4671,-3.468,-3.4695,-3.4694,-3.4702,-3.4717,-3.4728,-3.4716,-3.4725,-3.4737,-3.4726,-3.474,-3.4738,-3.4738,-3.4665,-3.4656,-3.4749,-3.4749,-3.4749,-3.4749,-3.4749,-3.4749,-3.4725,-3.4753,-3.4742,-3.4768,-3.4763,-3.4779,-3.4781,-3.4783,-3.4782,-3.48,-3.4809,-3.4801,-3.4795,-3.4803,-3.4812,-3.4808,-3.4812,-3.4829,-3.4822,-3.4753,-3.4743,-3.4733,-3.4725,-3.4831,-3.4831,-3.4894,-3.4894,-3.4895]}]]